When you browse on this site, cookies collect data to enhance your experience and personalize the content and advertising you see.
Visit our Privacy Policy to learn more. By continuing to use the site, you agree to this use of cookies and data.
  • In Hungary
  • List of Countries
  • For 7 days
  • Water Temperature
  • Satellite Maps
  • Weather Map
  • News
  • Weather Widgets
  • user-avatar
    Login

    Hourly Weather Arlon

    Today, 22 January, Tuesday

    Time Temperature Precipitation Wind Pressure Humidity
    00:00 -3°C° 0 mm 1 mps 732 mmHg 64%
    01:00 -3°C° 0 mm 1 mps 731 mmHg 66%
    02:00 -6°C° 0 mm 2 mps 730 mmHg 69%
    03:00 -6°C° 0 mm 2 mps 729 mmHg 71%
    04:00 -6°C° 0 mm 2 mps 729 mmHg 72%
    05:00 -6°C° 0 mm 2 mps 728 mmHg 73%
    06:00 -6°C° 0 mm 2 mps 727 mmHg 74%
    07:00 -7°C° 0 mm 3 mps 727 mmHg 71%
    08:00 -7°C° 0 mm 3 mps 726 mmHg 68%
    09:00 -7°C° 0 mm 4 mps 726 mmHg 65%
    10:00 -5°C° 0 mm 4 mps 725 mmHg 59%
    11:00 -4°C° 0 mm 4 mps 724 mmHg 54%
    12:00 -3°C° 0 mm 4 mps 724 mmHg 49%
    13:00 -3°C° 0.1 mm 4 mps 723 mmHg 54%
    14:00 -3°C° 0.1 mm 4 mps 723 mmHg 59%
    15:00 -2°C° 0.1 mm 3 mps 722 mmHg 64%
    16:00 -4°C° 0.4 mm 3 mps 722 mmHg 73%
    17:00 -4°C° 0.4 mm 3 mps 721 mmHg 83%
    18:00 -4°C° 0.4 mm 2 mps 721 mmHg 92%
    19:00 -3°C° 0.4 mm 2 mps 721 mmHg 93%
    20:00 -3°C° 0.4 mm 2 mps 720 mmHg 94%
    21:00 -1°C° 0.4 mm 1 mps 720 mmHg 95%
    22:00 -1°C° 0 mm 1 mps 719 mmHg 96%
    23:00 -2°C° 0 mm 1 mps 719 mmHg 97%

    Tomorrow, 23 January, Wednesday

    Time Temperature Precipitation Wind Pressure Humidity
    00:00 -2°C° 0 mm 1 mps 718 mmHg 97%
    01:00 -4°C° 0 mm 2 mps 718 mmHg 97%
    02:00 -3°C° 0 mm 2 mps 717 mmHg 96%
    03:00 -3°C° 0 mm 2 mps 717 mmHg 95%
    04:00 -4°C° 0 mm 3 mps 717 mmHg 95%
    05:00 -4°C° 0 mm 3 mps 717 mmHg 94%
    06:00 -4°C° 0 mm 3 mps 716 mmHg 93%
    07:00 -4°C° 0.1 mm 3 mps 717 mmHg 93%
    08:00 -4°C° 0.1 mm 3 mps 717 mmHg 92%
    09:00 -4°C° 0.1 mm 3 mps 717 mmHg 91%
    10:00 -2°C° 0 mm 3 mps 717 mmHg 89%
    11:00 -2°C° 0 mm 3 mps 718 mmHg 87%
    12:00 -1°C° 0 mm 3 mps 718 mmHg 85%
    13:00 -1°C° 0 mm 2 mps 718 mmHg 84%
    14:00 -1°C° 0 mm 2 mps 719 mmHg 84%
    15:00 +1°C° 0 mm 1 mps 719 mmHg 83%
    16:00 -2°C° 0 mm 2 mps 720 mmHg 86%
    17:00 -3°C° 0 mm 2 mps 720 mmHg 88%
    18:00 -3°C° 0 mm 2 mps 721 mmHg 91%
    19:00 -3°C° 0 mm 2 mps 722 mmHg 91%
    20:00 -3°C° 0 mm 2 mps 722 mmHg 90%
    21:00 -3°C° 0 mm 2 mps 723 mmHg 90%
    22:00 -3°C° 0 mm 2 mps 723 mmHg 90%
    23:00 -3°C° 0 mm 2 mps 724 mmHg 91%

    Day after tomorrow, 24 January, Thursday

    Time Temperature Precipitation Wind Pressure Humidity
    00:00 -4°C° 0 mm 2 mps 724 mmHg 91%
    01:00 -4°C° 0 mm 2 mps 724 mmHg 91%
    02:00 -6°C° 0 mm 3 mps 725 mmHg 92%
    03:00 -6°C° 0 mm 3 mps 725 mmHg 92%
    04:00 -6°C° 0 mm 3 mps 726 mmHg 92%
    05:00 -6°C° 0 mm 3 mps 726 mmHg 91%
    06:00 -6°C° 0 mm 3 mps 727 mmHg 91%
    07:00 -6°C° 0 mm 3 mps 727 mmHg 89%
    08:00 -5°C° 0 mm 3 mps 728 mmHg 88%
    09:00 -5°C° 0 mm 3 mps 728 mmHg 86%
    10:00 -4°C° 0 mm 3 mps 729 mmHg 83%
    11:00 -2°C° 0 mm 3 mps 729 mmHg 80%
    12:00 -2°C° 0 mm 3 mps 729 mmHg 77%
    13:00 -2°C° 0 mm 3 mps 729 mmHg 78%
    14:00 -2°C° 0 mm 3 mps 729 mmHg 80%
    15:00 -2°C° 0 mm 3 mps 729 mmHg 81%
    16:00 -2°C° 0 mm 3 mps 730 mmHg 84%
    17:00 -3°C° 0 mm 2 mps 730 mmHg 86%
    18:00 -3°C° 0 mm 2 mps 731 mmHg 89%
    19:00 -4°C° 0 mm 2 mps 731 mmHg 90%
    20:00 -2°C° 0 mm 1 mps 731 mmHg 91%
    21:00 -2°C° 0 mm 1 mps 731 mmHg 93%
    22:00 -2°C° 0 mm 1 mps 732 mmHg 94%
    23:00 -2°C° 0 mm 1 mps 732 mmHg 94%

    25 January, Friday

    Time Temperature Precipitation Wind Pressure Humidity
    00:00 -2°C° 0 mm 1 mps 732 mmHg 95%
    01:00 -2°C° 0 mm 1 mps 732 mmHg 95%
    02:00 -2°C° 0 mm 1 mps 732 mmHg 95%
    03:00 -2°C° 0 mm 1 mps 731 mmHg 95%
    04:00 -2°C° 0 mm 1 mps 731 mmHg 95%
    05:00 -2°C° 0 mm 1 mps 731 mmHg 95%
    06:00 -4°C° 0 mm 2 mps 731 mmHg 95%
    07:00 -4°C° 0 mm 2 mps 732 mmHg 94%
    08:00 -3°C° 0 mm 2 mps 732 mmHg 93%
    09:00 -4°C° 0 mm 3 mps 732 mmHg 92%
    10:00 -4°C° 0 mm 3 mps 731 mmHg 90%
    11:00 -3°C° 0 mm 4 mps 731 mmHg 88%
    12:00 -3°C° 0 mm 4 mps 731 mmHg 86%
    13:00 -3°C° 0.1 mm 4 mps 731 mmHg 87%
    14:00 -3°C° 0.1 mm 4 mps 730 mmHg 88%
    15:00 -3°C° 0.1 mm 4 mps 730 mmHg 89%
    16:00 -3°C° 0.3 mm 4 mps 729 mmHg 91%
    17:00 -3°C° 0.3 mm 4 mps 729 mmHg 92%
    18:00 -3°C° 0.3 mm 4 mps 729 mmHg 94%
    19:00 -3°C° 0.2 mm 4 mps 729 mmHg 95%
    20:00 -2°C° 0.2 mm 4 mps 729 mmHg 95%
    21:00 -1°C° 0.2 mm 3 mps 728 mmHg 96%
    22:00 -1°C° 0.1 mm 3 mps 728 mmHg 97%
    23:00 -1°C° 0.1 mm 3 mps 727 mmHg 97%

    26 January, Saturday

    Time Temperature Precipitation Wind Pressure Humidity
    00:00 -1°C° 0.1 mm 3 mps 727 mmHg 98%
    01:00 0°C° 0 mm 3 mps 726 mmHg 98%
    02:00 0°C° 0 mm 3 mps 726 mmHg 98%
    03:00 0°C° 0 mm 4 mps 725 mmHg 98%
    04:00 0°C° 0.4 mm 4 mps 724 mmHg 98%
    05:00 0°C° 0.4 mm 4 mps 724 mmHg 98%
    06:00 0°C° 0.4 mm 5 mps 723 mmHg 98%
    07:00 0°C° 0.5 mm 5 mps 722 mmHg 98%
    08:00 0°C° 0.5 mm 5 mps 722 mmHg 98%
    09:00 0°C° 0.5 mm 5 mps 721 mmHg 98%
    10:00 0°C° 0.9 mm 5 mps 720 mmHg 98%
    11:00 0°C° 0.9 mm 5 mps 720 mmHg 98%
    12:00 0°C° 0.9 mm 5 mps 719 mmHg 97%
    13:00 0°C° 1.3 mm 5 mps 718 mmHg 97%
    14:00 0°C° 1.3 mm 4 mps 717 mmHg 97%
    15:00 0°C° 1.3 mm 4 mps 716 mmHg 97%
    16:00 0°C° 1 mm 4 mps 716 mmHg 97%
    17:00 0°C° 1 mm 4 mps 715 mmHg 98%
    18:00 0°C° 1 mm 4 mps 715 mmHg 98%
    19:00 +1°C° 0.7 mm 3 mps 715 mmHg 98%
    20:00 +1°C° 0.7 mm 3 mps 715 mmHg 98%
    21:00 +1°C° 0.7 mm 3 mps 714 mmHg 98%
    22:00 +2°C° 1 mm 2 mps 715 mmHg 98%
    23:00 +1°C° 1 mm 2 mps 715 mmHg 97%

    27 January, Sunday

    Time Temperature Precipitation Wind Pressure Humidity
    00:00 +1°C° 1 mm 2 mps 715 mmHg 97%
    01:00 0°C° 0.7 mm 3 mps 715 mmHg 95%
    02:00 -1°C° 0.7 mm 5 mps 715 mmHg 92%
    03:00 -2°C° 0.7 mm 6 mps 716 mmHg 90%
    04:00 -2°C° 0.6 mm 6 mps 716 mmHg 90%
    05:00 -1°C° 0.6 mm 5 mps 717 mmHg 91%
    06:00 -1°C° 0.6 mm 5 mps 717 mmHg 91%
    07:00 -1°C° 0.4 mm 5 mps 718 mmHg 91%
    08:00 -1°C° 0.4 mm 5 mps 719 mmHg 91%
    09:00 -1°C° 0.4 mm 5 mps 719 mmHg 92%
    10:00 -1°C° 0.1 mm 5 mps 720 mmHg 90%
    11:00 -1°C° 0.1 mm 5 mps 720 mmHg 88%
    12:00 -1°C° 0.1 mm 5 mps 720 mmHg 87%
    13:00 -1°C° 0 mm 5 mps 721 mmHg 87%
    14:00 -1°C° 0 mm 5 mps 721 mmHg 88%
    15:00 -2°C° 0 mm 4 mps 721 mmHg 88%
    16:00 -2°C° 0.1 mm 4 mps 721 mmHg 90%
    17:00 -3°C° 0.1 mm 4 mps 722 mmHg 91%
    18:00 -3°C° 0.1 mm 4 mps 722 mmHg 93%
    19:00 -3°C° 0.3 mm 4 mps 722 mmHg 94%
    20:00 -2°C° 0.3 mm 3 mps 722 mmHg 94%
    21:00 -2°C° 0.3 mm 3 mps 723 mmHg 95%
    22:00 -2°C° 0.4 mm 3 mps 723 mmHg 95%
    23:00 -2°C° 0.4 mm 2 mps 723 mmHg 95%
    Show more